Bluefield, WV

12:46 PM EDT on June 23, 2017 (GMT -0400)
Mercer County

Weather History for KBLF - June, 2013

Change the Weather History Date:

Wednesday, June 26, 2013

  Actual Average Record
Temperature  
Mean Temperature 75 °F 72 °F  
Max Temperature 83 °F 80 °F 90 °F (2007)
Min Temperature 66 °F 64 °F 49 °F (1974)
Degree Days  
Heating Degree Days 0 0  
Month to date heating degree days 0 21  
Since 1 June heating degree days 0 21  
Since 1 July heating degree days 4686 4587  
Cooling Degree Days 10 7  
Month to date cooling degree days 158 137  
Year to date cooling degree days 272 228  
Since 1 June cooling degree days 158 137  
Growing Degree Days 23 (Base 50)    
Moisture  
Dew Point 65 °F    
Average Humidity 73    
Maximum Humidity 87    
Minimum Humidity 58    
Precipitation  
Precipitation 0.29 in 0.13 in 2.26 in (2006)
Month to date precipitation 4.11 3.62  
Year to date precipitation 22.64 20.44  
Snow  
Snow 0.00 in - - ()
Month to date snowfall 0.0  
Since 1 June snowfall 0.0  
Since 1 July snowfall 56.0  
Snow Depth 0.00 in    
Sea Level Pressure  
Sea Level Pressure 30.01 in    
Wind  
Wind Speed 6 mph (WSW)    
Max Wind Speed 22 mph    
Max Gust Speed 33 mph    
Visibility 9 miles    
Events Fog , Rain , Thunderstorm    
T = Trace of Precipitation, MM = Missing Value Source: NWS Daily Summary

Daily Weather History Graph

Daily Weather History Graph

Search for Another Location

Airport or City:

Trip Planner

Search our weather history database for the weather conditions in past years. The results will help you decide how hot, cold, wet, or windy it might be!

Date:

Astronomy

Jun. 26, 2013 Rise Set
Actual Time 6:06 AM EDT 8:49 PM EDT
Civil Twilight 5:35 AM EDT 9:20 PM EDT
Nautical Twilight 4:56 AM EDT 9:59 PM EDT
Astronomical Twilight 4:12 AM EDT 10:42 PM EDT
Moon 11:17 PM EDT (6/26) 9:51 AM EDT (6/26)
Length of Visible Light 15h 45m
Length of Day
14h 43m
Waning Gibbous, 85% of the Moon is Illuminated
Jun 26
Waning Gibbous
Jun 30
Last Quarter
Jul 8
New
Jul 15
First Quarter
Jul 22
Full

Hourly Weather History & Observations

Time (EDT) Temp. Heat Index Dew Point Humidity Pressure Visibility Wind Dir Wind Speed Gust Speed Precip Events Conditions
12:52 AM 70.0 °F - 64.0 °F 81% 30.00 in 10.0 mi SSW 4.6 mph - N/A   Clear
1:52 AM 70.0 °F - 64.0 °F 81% 30.00 in 10.0 mi WNW 4.6 mph - N/A   Clear
2:52 AM 69.1 °F - 63.0 °F 81% 29.98 in 10.0 mi West 4.6 mph - N/A   Clear
3:52 AM 68.0 °F - 62.1 °F 81% 29.97 in 10.0 mi West 3.5 mph - N/A   Clear
4:52 AM 66.9 °F - 62.1 °F 84% 29.98 in 10.0 mi WSW 6.9 mph - N/A   Clear
5:52 AM 66.0 °F - 61.0 °F 84% 29.99 in 10.0 mi West 6.9 mph - N/A   Partly Cloudy
6:52 AM 68.0 °F - 63.0 °F 84% 30.00 in 6.0 mi WSW 5.8 mph - N/A   Haze
7:52 AM 70.0 °F - 64.0 °F 81% 30.00 in 7.0 mi West 5.8 mph - N/A   Mostly Cloudy
8:52 AM 73.0 °F - 66.0 °F 79% 29.99 in 10.0 mi West 5.8 mph - N/A   Mostly Cloudy
9:02 AM 73.4 °F - 66.2 °F 78% 30.11 in 10.0 mi West 8.1 mph - N/A   Mostly Cloudy
9:18 AM 75.2 °F - 66.2 °F 73% 30.11 in 10.0 mi West 10.4 mph - N/A   Mostly Cloudy
9:37 AM 75.2 °F - 66.2 °F 73% 30.11 in 10.0 mi West 6.9 mph - N/A   Mostly Cloudy
9:52 AM 75.0 °F - 66.0 °F 73% 29.99 in 10.0 mi West 9.2 mph - N/A   Overcast
10:24 AM 78.8 °F - 66.2 °F 65% 30.10 in 10.0 mi WSW 9.2 mph - N/A   Mostly Cloudy
10:52 AM 79.0 °F - 66.0 °F 64% 29.98 in 10.0 mi West 13.8 mph 18.4 mph 0.01 in   Mostly Cloudy
11:27 AM 80.6 °F 82.7 °F 66.2 °F 61% 30.09 in 10.0 mi West 10.4 mph - N/A   Scattered Clouds
11:52 AM 80.1 °F 81.9 °F 64.9 °F 60% 29.97 in 10.0 mi WNW 8.1 mph 18.4 mph N/A   Mostly Cloudy
12:52 PM 80.1 °F 81.9 °F 64.9 °F 60% 29.97 in 10.0 mi NW 10.4 mph 18.4 mph N/A   Scattered Clouds
1:11 PM 80.6 °F 82.7 °F 66.2 °F 61% 30.09 in 10.0 mi West 4.6 mph 16.1 mph N/A Thunderstorm Thunderstorm
1:31 PM 73.4 °F - 64.4 °F 73% 30.12 in 1.8 mi West 18.4 mph 33.4 mph 0.11 in Rain , Thunderstorm Heavy Thunderstorms and Rain
1:42 PM 68.0 °F - 62.6 °F 83% 30.12 in 2.5 mi WSW 9.2 mph 21.9 mph 0.21 in Rain , Thunderstorm Light Thunderstorms and Rain
1:49 PM 68.0 °F - 60.8 °F 78% 30.11 in 10.0 mi SSW 4.6 mph - 0.22 in Rain , Thunderstorm Light Thunderstorms and Rain
1:52 PM 68.0 °F - 61.0 °F 78% 30.01 in 10.0 mi SW 5.8 mph - 0.22 in Rain , Thunderstorm Light Thunderstorms and Rain
2:19 PM 69.8 °F - 62.6 °F 78% 30.10 in 10.0 mi West 8.1 mph - 0.00 in   Mostly Cloudy
2:52 PM 70.0 °F - 64.0 °F 81% 29.99 in 10.0 mi West 5.8 mph - 0.00 in   Clear
3:52 PM 73.9 °F - 66.9 °F 79% 29.95 in 10.0 mi WSW 6.9 mph - N/A   Partly Cloudy
4:30 PM 75.2 °F - 66.2 °F 73% 30.05 in 10.0 mi West 9.2 mph - N/A   Mostly Cloudy
4:42 PM 75.2 °F - 66.2 °F 73% 30.05 in 10.0 mi West 10.4 mph - N/A   Mostly Cloudy
4:52 PM 78.1 °F - 68.0 °F 71% 29.93 in 10.0 mi West 10.4 mph - N/A   Mostly Cloudy
5:09 PM 78.8 °F - 66.2 °F 65% 30.04 in 10.0 mi West 9.2 mph - N/A   Mostly Cloudy
5:18 PM 78.8 °F - 66.2 °F 65% 30.04 in 10.0 mi West 8.1 mph - N/A   Partly Cloudy
5:52 PM 78.1 °F - 66.0 °F 66% 29.92 in 10.0 mi West 5.8 mph - N/A   Partly Cloudy
6:52 PM 79.0 °F - 66.0 °F 64% 29.92 in 10.0 mi WSW 4.6 mph - N/A   Clear
7:52 PM 75.0 °F - 66.9 °F 76% 29.91 in 10.0 mi Calm Calm - 0.06 in   Mostly Cloudy
8:40 PM 71.6 °F - 66.2 °F 83% 30.02 in 1.5 mi Calm Calm - N/A   Haze
8:52 PM 71.1 °F - 66.9 °F 87% 29.91 in 0.2 mi Calm Calm - N/A Fog Fog
9:02 PM 71.6 °F - 66.2 °F 83% 30.02 in 2.5 mi Calm Calm - N/A   Haze
9:09 PM 71.6 °F - 66.2 °F 83% 30.01 in 10.0 mi SSW 3.5 mph - N/A   Scattered Clouds
9:52 PM 72.0 °F - 66.0 °F 81% 29.90 in 10.0 mi South 3.5 mph - N/A   Clear
10:52 PM 71.1 °F - 64.0 °F 78% 29.90 in 10.0 mi South 4.6 mph - N/A   Clear
11:52 PM 70.0 °F - 63.0 °F 78% 29.89 in 10.0 mi SW 4.6 mph - N/A   Clear